STRELA 3

导读

STRELA 3(斯特雷拉3)是独联体(CIS)地区继承苏联航天遗产的俄罗斯于2010年9月8日发射的军事通信卫星,隶属于俄罗斯"斯特雷拉"低轨军事卫星星座,承担战略战术军事通信传输任务,服务俄罗斯国防通信需求,补网增强了俄罗斯天基军事通信网络的覆盖能力与抗毁性,是俄罗斯军事航天体系中保障应急通信的重要节点。

Basic Information
目录编号:
37153
目录名称:
STRELA 3
国际标识:
2010-043B
轨道中心:
EARTH
卫星名称:
STRELA 3
卫星全名:
--
卫星状态:
在轨 (已飞行5759 天)
发射日期:
2010-09-08 UTC
国别 :
俄罗斯(独联体) (CIS)
星等 :
--
Orbit Information
数据来源 国际轨道数据 AOE轨道数据
星历时间 2026-06-15T05:22:41+0800
7小时前
查看轨道信息
2026-06-15T02:00:00+0800
11小时前
查看轨道信息
半长轴 7881.388km 7881.383km
偏心率 0.0008738 0.0008722
轨道倾角 82.458° 82.458°
近地点辐角 86.020° 87.203°
升交点赤经 79.850° 79.938°
平近点角 274.187° 4.606°
近地点 1496.364km 1496.371km
远地点 1510.138km 1510.121km
周期 116.055分钟 116.055分钟
每日圈数 12.407914 12.407924
Detailed Information
使用方式:
暂无
2D Orbit Map
3D Orbit Map
Orbit Altitude Analysis Chart
Orbit Inclination Analysis Chart
Orbit Comprehensive Analysis Chart
View Comprehensive Chart